Find Kuiper-00248

NORAD ID: 67153 Int'l Des: 2025-301 Owner: KUIP Country: US Constellation: amazon-leo operational
LEOCIRCULAR

当前视图

正在加载3D地球...

About Kuiper-00248

Kuiper-00248 (NORAD 67153) is a amazon-leo constellation satellite launched Dec 16, 2025 by KUIP of US. It operates in LEO, CIRCULAR orbit with a mass of 490.00 kg.

关于 Kuiper-00248

正在加载描述...

即将过境

Passes for default location (London). Set your location on the main map for personalized predictions.

高度历史

Loading altitude history...

两行轨道根数

1 67153U 25301W 26169.68489209 .00001628 00000-0 26127-3 0 9991
2 67153 51.8991 313.8518 0001785 69.9086 290.2067 14.76640328 29205
Epoch: Jun 18, 2026 • Age: 20 hours

当前状态

高度 643.8 km
速度 7.54 km/s
星下点 46.16°N, 18.52°W
发射日期 Dec 16, 2025
运行时间 0.5 years
类型 internet

技术详情

分类 Payload
质量 490.00 kg
干质量 490.00 kg
总质量 490.00 kg
长度 1.80 m
直径 0.70 m
跨度 5.00 m
形状 Box + 2 pan
制造商 KUIP
平台类型 Kuiper
阶段状态 In Orbit
所有者/国家 KUIP/US

Most Searched